Weather History for EHVK - May, 2013

Change the Weather History Date:

Saturday, May 11, 2013

  Actual Average Record
Temperature  
Mean Temperature 50 °F -  
Max Temperature 57 °F 66 °F 87 °F (1998)
Min Temperature 44 °F 47 °F 35 °F (2005)
Degree Days  
Heating Degree Days 14    
Moisture  
Dew Point 46 °F    
Average Humidity 81    
Maximum Humidity 93    
Minimum Humidity 63    
Precipitation  
Precipitation 0.00 in - - ()
Sea Level Pressure  
Sea Level Pressure 29.91 in    
Wind  
Wind Speed 10 mph ()    
Max Wind Speed 18 mph    
Max Gust Speed -    
Visibility 6.1 miles    
Events Rain    
Averages and records for this station are not official NWS values.
T = Trace of Precipitation, MM = Missing Value Source: Averaged Metar Reports

Daily Weather History Graph

Daily Weather History Graph

Search for Another Location

Airport or City:

Trip Planner

Search our weather history database for the weather conditions in past years. The results will help you decide how hot, cold, wet, or windy it might be!

Date:

Astronomy

May. 11, 2013 Rise Set
Actual Time 5:50 AM CEST 9:17 PM CEST
Civil Twilight 5:10 AM CEST 9:58 PM CEST
Nautical Twilight 4:15 AM CEST 10:53 PM CEST
Astronomical Twilight 2:59 AM CEST 12:11 AM CEST
Moon 6:43 AM CEST (5/11) 10:48 PM CEST (5/11)
Length of Visible Light 16h 47m
Length of Day
15h 26m
New Moon, 2% of the Moon is Illuminated
May 11
New Moon
May 18
First Quarter
May 25
Full
May 31
Last Quarter
Jun 8
New

Hourly Weather History & Observations

Time (CEST) Temp. Windchill Dew Point Humidity Pressure Visibility Wind Dir Wind Speed Gust Speed Precip Events Conditions
12:25 AM 48.2 °F - 42.8 °F 82% 30.01 in 6.2 mi SSW 8.1 mph - N/A   Unknown
12:55 AM 48.2 °F - 41.0 °F 76% 30.01 in 6.2 mi SSW 6.9 mph - N/A   Unknown
1:25 AM 46.4 °F 42.9 °F 41.0 °F 81% 30.01 in 6.2 mi SSW 6.9 mph - N/A   Unknown
1:55 AM 48.2 °F - 42.8 °F 82% 30.01 in 6.2 mi SSW 9.2 mph - N/A   Unknown
2:25 AM 48.2 °F - 42.8 °F 82% 29.98 in 6.2 mi SSW 9.2 mph - N/A   Unknown
2:55 AM 48.2 °F - 42.8 °F 82% 29.98 in 6.2 mi SSW 10.4 mph - N/A   Unknown
3:25 AM 46.4 °F 42.4 °F 42.8 °F 87% 29.98 in 6.2 mi SSW 8.1 mph - N/A   Unknown
3:55 AM 46.4 °F 42.9 °F 42.8 °F 87% 29.98 in 6.2 mi SSW 6.9 mph - N/A   Unknown
4:25 AM 44.6 °F 40.7 °F 42.8 °F 93% 29.95 in 6.2 mi SSW 6.9 mph - N/A   Scattered Clouds
4:55 AM 44.6 °F 40.7 °F 42.8 °F 93% 29.95 in 6.2 mi South 6.9 mph - N/A   Unknown
5:25 AM 44.6 °F 40.2 °F 42.8 °F 93% 29.95 in 6.2 mi South 8.1 mph - N/A   Partly Cloudy
5:55 AM 46.4 °F 42.4 °F 44.6 °F 93% 29.95 in 6.2 mi South 8.1 mph - N/A   Mostly Cloudy
6:25 AM 48.2 °F - 44.6 °F 87% 29.95 in 6.2 mi South 9.2 mph - N/A   Overcast
6:55 AM 48.2 °F - 44.6 °F 87% 29.95 in 6.2 mi SSW 5.8 mph - N/A   Overcast
7:25 AM 50.0 °F - 44.6 °F 82% 29.95 in 6.2 mi South 8.1 mph - N/A   Overcast
7:55 AM 50.0 °F - 46.4 °F 87% 29.92 in 6.2 mi SSW 9.2 mph - N/A   Overcast
8:25 AM 50.0 °F - 46.4 °F 87% 29.95 in 6.2 mi South 8.1 mph - N/A   Overcast
8:55 AM 51.8 °F - 46.4 °F 82% 29.92 in 6.2 mi South 8.1 mph - N/A   Mostly Cloudy
9:25 AM 53.6 °F - 48.2 °F 82% 29.92 in 6.2 mi South 8.1 mph - N/A   Mostly Cloudy
9:55 AM 53.6 °F - 46.4 °F 77% 29.92 in 6.2 mi SSW 11.5 mph - N/A   Overcast
10:25 AM 55.4 °F - 46.4 °F 72% 29.92 in 6.2 mi SW 11.5 mph - N/A   Overcast
10:44 AM 55.4 °F - 46.4 °F 72% 29.92 in 6.2 mi SSW 10.4 mph - N/A   Mostly Cloudy
10:45 AM 55.4 °F - 46.4 °F 72% 29.92 in 6.2 mi SW 11.5 mph - N/A   Mostly Cloudy
10:55 AM 55.4 °F - 46.4 °F 72% 29.92 in 6.2 mi SW 11.5 mph - N/A   Mostly Cloudy
11:03 AM 53.6 °F - 46.4 °F 77% 29.92 in 6.2 mi SW 11.5 mph - N/A   Mostly Cloudy
11:07 AM 55.4 °F - 46.4 °F 72% 29.92 in 6.2 mi SW 11.5 mph - N/A   Overcast
11:25 AM 53.6 °F - 48.2 °F 82% 29.92 in 4.3 mi SSW 13.8 mph - N/A Rain Light Rain
11:31 AM 51.8 °F - 48.2 °F 88% 29.92 in 6.2 mi SSW 13.8 mph - N/A   Light Drizzle
11:44 AM 51.8 °F - 48.2 °F 88% 29.92 in 6.2 mi SSW 12.7 mph - N/A Rain Light Rain
11:55 AM 51.8 °F - 48.2 °F 88% 29.92 in 6.2 mi SW 11.5 mph - N/A   Drizzle
11:59 AM 50.0 °F - 44.6 °F 82% 29.92 in 5.6 mi WSW 13.8 mph - N/A Rain Heavy Rain Showers
12:03 PM 48.2 °F - 44.6 °F 87% 29.92 in 5.0 mi WSW 15.0 mph - N/A Rain Heavy Rain Showers
12:20 PM 48.2 °F - 44.6 °F 87% 29.92 in 5.6 mi West 16.1 mph - N/A Rain Light Rain
12:25 PM 48.2 °F - 44.6 °F 87% 29.95 in 6.2 mi West 16.1 mph - N/A Rain Light Rain
12:29 PM 46.4 °F 39.8 °F 44.6 °F 93% 29.95 in 6.2 mi West 16.1 mph - N/A Rain Light Rain
12:42 PM 46.4 °F 40.4 °F 44.6 °F 93% 29.95 in 6.2 mi West 13.8 mph - N/A Rain Light Rain
12:55 PM 46.4 °F 41.5 °F 44.6 °F 93% 29.92 in 6.2 mi WSW 10.4 mph - N/A Rain Light Rain Showers
1:25 PM 48.2 °F - 46.4 °F 93% 29.92 in 6.2 mi SSW 5.8 mph - N/A Rain Light Rain
1:55 PM 51.8 °F - 46.4 °F 82% 29.92 in 6.2 mi SW 13.8 mph - N/A   Mostly Cloudy
2:13 PM 53.6 °F - 48.2 °F 82% 29.89 in 6.2 mi SW 13.8 mph - N/A   Mostly Cloudy
2:20 PM 51.8 °F - 44.6 °F 76% 29.89 in 6.2 mi SW 16.1 mph - N/A   Mostly Cloudy
2:25 PM 53.6 °F - 46.4 °F 77% 29.89 in 6.2 mi SW 16.1 mph - N/A   Mostly Cloudy
2:47 PM 55.4 °F - 46.4 °F 72% 29.89 in 6.2 mi SW 18.4 mph - N/A   Partly Cloudy
2:55 PM 55.4 °F - 46.4 °F 72% 29.89 in 6.2 mi SW 17.3 mph - N/A   Unknown
3:25 PM 57.2 °F - 46.4 °F 67% 29.89 in 6.2 mi SSW 17.3 mph - N/A   Mostly Cloudy
3:55 PM 55.4 °F - 44.6 °F 67% 29.86 in 6.2 mi SSW 13.8 mph - N/A   Partly Cloudy
4:25 PM 55.4 °F - 44.6 °F 67% 29.86 in 6.2 mi SW 11.5 mph - N/A   Overcast
4:55 PM 55.4 °F - 42.8 °F 63% 29.86 in 6.2 mi WSW 16.1 mph - N/A   Overcast
5:25 PM 55.4 °F - 44.6 °F 67% 29.86 in 6.2 mi SW 18.4 mph - N/A   Mostly Cloudy
5:55 PM 55.4 °F - 48.2 °F 77% 29.86 in 6.2 mi SW 15.0 mph - N/A   Mostly Cloudy
6:25 PM 53.6 °F - 48.2 °F 82% 29.86 in 6.2 mi SW 16.1 mph - N/A Rain Light Rain
6:51 PM 53.6 °F - 50.0 °F 88% 29.86 in 6.2 mi SW 12.7 mph - N/A   Overcast
6:55 PM 55.4 °F - 48.2 °F 77% 29.86 in 6.2 mi SW 12.7 mph - N/A   Mostly Cloudy
6:59 PM 53.6 °F - 48.2 °F 82% 29.86 in 6.2 mi SW 12.7 mph - N/A   Mostly Cloudy
7:25 PM 53.6 °F - 46.4 °F 77% 29.83 in 6.2 mi SW 16.1 mph - N/A   Mostly Cloudy
7:29 PM 53.6 °F - 46.4 °F 77% 29.83 in 6.2 mi SW 17.3 mph - N/A   Mostly Cloudy
7:35 PM 53.6 °F - 46.4 °F 77% 29.86 in 6.2 mi SW 18.4 mph - N/A   Mostly Cloudy
7:55 PM 55.4 °F - 46.4 °F 72% 29.86 in 6.2 mi SW 16.1 mph - N/A   Overcast
8:25 PM 53.6 °F - 46.4 °F 77% 29.86 in 6.2 mi SW 12.7 mph - N/A   Overcast
8:55 PM 53.6 °F - 46.4 °F 77% 29.86 in 6.2 mi SW 13.8 mph - N/A   Mostly Cloudy
9:25 PM 53.6 °F - 46.4 °F 77% 29.83 in 6.2 mi SW 12.7 mph - N/A   Mostly Cloudy
9:55 PM 53.6 °F - 44.6 °F 72% 29.86 in 6.2 mi SSW 13.8 mph - N/A   Mostly Cloudy
10:25 PM 53.6 °F - 44.6 °F 72% 29.86 in 6.2 mi SW 15.0 mph - N/A   Mostly Cloudy
10:55 PM 53.6 °F - 46.4 °F 77% 29.86 in 6.2 mi SSW 13.8 mph - N/A   Overcast
11:14 PM 53.6 °F - 46.4 °F 77% 29.86 in 3.7 mi SW 13.8 mph - N/A Rain Light Rain
11:18 PM 51.8 °F - 46.4 °F 82% 29.86 in 5.0 mi SW 15.0 mph - N/A Rain Light Rain
11:25 PM 51.8 °F - 46.4 °F 82% 29.86 in 6.2 mi SW 16.1 mph - N/A Rain Light Rain
11:35 PM 51.8 °F - 46.4 °F 82% 29.86 in 6.2 mi SW 12.7 mph - N/A   Mostly Cloudy
11:55 PM 51.8 °F - 46.4 °F 82% 29.86 in 6.2 mi SW 13.8 mph - N/A   Mostly Cloudy